Погода в По

Франция     43˚18′16″N   0˚22′08″E
темп.,
°C
ветер,
м/с
пор.,
м/с
влажн.,
%
обл.,
%
осадки,
мм/ч
давл.,
гПа
погр.,
м
5 декабря, сб
сб501:00+3˚ююз368799 3.9 997194
04:00+3˚зюз489194 0.2 997339
07:00+4˚ююз378997 4.6 999345
10:00+4˚юз397933 0.1 1000482
13:00+8˚з376366 0.1 998804
16:00+5˚юз41088100 2.8 998778
19:00+5˚юз51290100 5.3 1000573
22:00+6˚зюз61290100 1.1 1001913
6 декабря, вс
вс601:00+5˚зюз61394100 2.6 1002878
04:00+5˚юз51193100 2.4 1002820
07:00+5˚зюз61392100 6.0 1003870
10:00+6˚зюз71286100 2.0 1004912
13:00+7˚з6979100 4.4 1005976
16:00+6˚з598399 2.8 1005831
19:00+5˚юз5992100 3.9 1006488
22:00+5˚зюз51093100 1.3 1008451
7 декабря, пн
пн701:00+4˚юз3895100 2.3 1008240
04:00+4˚юз368872 0.1 1007159
07:00+4˚ююв239186 1.3 1006119
10:00+5˚вюв1285100 0.4 1005122
13:00+5˚ю2389100 1.3 1003226
16:00+6˚юз61489100 5.8 10021145
19:00+7˚зюз61489100 7.6 10031141
22:00+7˚зюз71487100 1.9 10031154
8 декабря, вт
вт801:00+6˚зюз61288100 3.7 1002983
04:00+6˚юз51290100 2.3 1001943
07:00+4˚зюз71494100 8.1 1002924
10:00+5˚зюз61293100 3.9 1004997
13:00+5˚з51194100 9.8 1004777
16:00+4˚зюз479299 4.5 1007532
19:00+3˚юз478590 4.6 1010180
22:00+2˚з469899 2.3 1012286
9 декабря, ср
ср901:00+2˚ююз4796100 6.7 1013207
04:00+2˚зюз229289 0.2 101435
07:00+3˚юз239094 0.4 101489
10:00+5˚зюз4890100 0.5 1015350
13:00+7˚зюз4678100 1.0 1014805
16:00+5˚юз4993100 0.9 1013439
19:00+4˚юз488891 1.5 1013178
22:00+5˚ююз3793100 0.6 1013359